Location: Buchdorf
(48.7842°N, 10.8275°E)
Time: 10:30:51
(UTC+00:00)

N. Korean satellite - Visible Passes

Search period start: 04 March 2021 00:00
Search period end: 14 March 2021 00:00
Orbit: 451 x 502 km, 97.2° (Epoch: 03 March)

Date Brightness Start Highest point End Pass type
(mag) Time Alt. Az. Time Alt. Az. Time Alt. Az.
04 Mar 6.4 04:57:47 10° N 05:01:20 78° WNW 05:04:54 10° SSW visible
05 Mar 7.6 04:31:06 10° NNE 04:34:33 49° E 04:38:02 10° S visible
06 Mar 9.0 04:04:42 10° NE 04:07:40 24° E 04:10:39 10° SSE visible
07 Mar 9.9 03:39:02 10° ENE 03:40:40 13° E 03:42:20 10° ESE visible
07 Mar 6.7 05:10:48 10° N 05:14:18 53° WNW 05:17:48 10° SSW visible
08 Mar 6.8 04:43:58 10° NNE 04:47:32 72° ESE 04:51:09 10° S visible
09 Mar 8.4 04:17:23 10° NNE 04:20:41 34° E 04:24:00 10° SSE visible
10 Mar 9.6 03:51:13 10° NE 03:53:43 18° E 03:56:14 10° SE visible
11 Mar 6.5 04:56:50 10° N 05:00:26 79° WNW 05:04:04 10° SSW visible
12 Mar 7.7 04:30:05 10° NNE 04:33:36 48° E 04:37:08 10° S visible
13 Mar 9.1 04:03:39 10° NE 04:06:40 24° E 04:09:41 10° SSE visible
